| time (UTC) | temp F | wind direction | speed MPH | gust MPH | rain 1hr in | rain 24hr in | rain mn in | humidity % | barometer mb |
| 20260905234129 | 60 | 227 | 0.0 | 0.0 | 0.00 | 0.00 | 0.00 | 85 | 1023.7 |
| 20260905233131 | 60 | 227 | 0.0 | 0.0 | 0.00 | 0.00 | 0.00 | 85 | 1023.8 |
| 20260905232125 | 60 | 227 | 0.0 | 0.0 | 0.00 | 0.00 | 0.00 | 84 | 1023.8 |
| 20260905231111 | 60 | 227 | 0.0 | 0.0 | 0.00 | 0.00 | 0.00 | 84 | 1024.0 |
| 20260905230124 | 60 | 227 | 0.0 | 0.0 | 0.00 | 0.00 | 0.00 | 84 | 1024.0 |
| 20260905225137 | 60 | 227 | 0.0 | 0.0 | 0.00 | 0.00 | 0.00 | 83 | 1024.3 |
| 20260905224123 | 60 | 227 | 0.0 | 0.0 | 0.00 | 0.00 | 0.00 | 83 | 1024.2 |
| 20260905223116 | 60 | 227 | 0.0 | 0.0 | 0.00 | 0.00 | 0.00 | 83 | 1024.1 |
| 20260905222122 | 60 | 227 | 0.0 | 0.0 | 0.00 | 0.00 | 0.00 | 83 | 1024.1 |
| 20260905221135 | 61 | 227 | 0.0 | 0.0 | 0.00 | 0.00 | 0.00 | 82 | 1024.1 |
| 20260905220146 | 61 | 227 | 0.0 | 0.0 | 0.00 | 0.00 | 0.00 | 82 | 1024.0 |
| 20260905215117 | 61 | 227 | 0.0 | 0.0 | 0.00 | 0.00 | 0.00 | 82 | 1024.0 |
| 20260905214123 | 61 | 227 | 0.0 | 0.0 | 0.00 | 0.00 | 0.00 | 81 | 1024.1 |
| 20260905213116 | 61 | 227 | 0.0 | 1.0 | 0.00 | 0.00 | 0.00 | 81 | 1024.1 |
| 20260905212130 | 61 | 227 | 0.0 | 0.0 | 0.00 | 0.00 | 0.00 | 80 | 1024.1 |
| 20260905211114 | 62 | 227 | 0.0 | 1.0 | 0.00 | 0.00 | 0.00 | 80 | 1024.1 |
| 20260905210128 | 62 | 227 | 0.0 | 1.0 | 0.00 | 0.00 | 0.00 | 79 | 1024.1 |
| 20260905205114 | 62 | 227 | 0.0 | 1.0 | 0.00 | 0.00 | 0.00 | 79 | 1024.1 |
| 20260905204127 | 62 | 227 | 0.0 | 1.0 | 0.00 | 0.00 | 0.00 | 80 | 1024.2 |
| 20260905203113 | 62 | 227 | 0.0 | 1.0 | 0.00 | 0.00 | 0.00 | 80 | 1024.1 |
| 20260905202146 | 62 | 227 | 0.0 | 0.0 | 0.00 | 0.00 | 0.00 | 80 | 1024.0 |
| 20260905201118 | 63 | 227 | 0.0 | 0.0 | 0.00 | 0.00 | 0.00 | 78 | 1023.9 |
| 20260905200124 | 63 | 227 | 0.0 | 1.0 | 0.00 | 0.00 | 0.00 | 78 | 1023.8 |
| 20260905195118 | 63 | 227 | 0.0 | 0.0 | 0.00 | 0.00 | 0.00 | 77 | 1023.9 |
| 20260905194152 | 63 | 227 | 0.0 | 1.0 | 0.00 | 0.00 | 0.00 | 76 | 1023.8 |
| 20260905193117 | 63 | 227 | 0.0 | 1.0 | 0.00 | 0.00 | 0.00 | 76 | 1023.6 |
| 20260905192129 | 63 | 227 | 0.0 | 0.0 | 0.00 | 0.00 | 0.00 | 73 | 1023.7 |
| 20260905191119 | 64 | 227 | 0.0 | 0.0 | 0.00 | 0.00 | 0.00 | 73 | 1023.8 |
| 20260905190131 | 64 | 227 | 0.0 | 0.0 | 0.00 | 0.00 | 0.00 | 74 | 1023.7 |
| 20260905185115 | 65 | 227 | 0.0 | 0.0 | 0.00 | 0.00 | 0.00 | 73 | 1023.6 |
| 20260905184148 | 66 | 227 | 0.0 | 0.0 | 0.00 | 0.00 | 0.00 | 72 | 1023.6 |
| 20260905183119 | 66 | 227 | 0.0 | 0.0 | 0.00 | 0.00 | 0.00 | 72 | 1023.5 |
| 20260905182132 | 67 | 227 | 0.0 | 0.0 | 0.00 | 0.00 | 0.00 | 71 | 1023.5 |
| 20260905181119 | 67 | 227 | 0.0 | 0.0 | 0.00 | 0.00 | 0.00 | 71 | 1023.5 |
| 20260905180153 | 67 | 227 | 0.0 | 1.0 | 0.00 | 0.00 | 0.00 | 70 | 1023.5 |
| 20260905175151 | 68 | 227 | 0.0 | 0.0 | 0.00 | 0.00 | 0.00 | 69 | 1023.4 |
| 20260905174142 | 68 | 227 | 0.0 | 1.0 | 0.00 | 0.00 | 0.00 | 68 | 1023.5 |
| 20260905173127 | 69 | 227 | 0.0 | 1.0 | 0.00 | 0.00 | 0.00 | 65 | 1023.5 |
| 20260905172120 | 69 | 228 | 0.0 | 2.0 | 0.00 | 0.00 | 0.00 | 64 | 1023.4 |
| 20260905171126 | 70 | 228 | 0.0 | 1.0 | 0.00 | 0.00 | 0.00 | 60 | 1023.5 |
| 20260905170121 | 72 | 228 | 0.0 | 2.0 | 0.00 | 0.00 | 0.00 | 57 | 1023.4 |
| 20260905165134 | 74 | 228 | 0.0 | 2.0 | 0.00 | 0.00 | 0.00 | 55 | 1023.5 |
| 20260905164140 | 74 | 228 | 0.0 | 2.0 | 0.00 | 0.00 | 0.00 | 55 | 1023.5 |
| 20260905163117 | 74 | 230 | 0.0 | 3.0 | 0.00 | 0.00 | 0.00 | 55 | 1023.4 |
| 20260905162146 | 74 | 230 | 0.0 | 1.0 | 0.00 | 0.00 | 0.00 | 55 | 1023.4 |
| 20260905161117 | 74 | 230 | 0.0 | 2.0 | 0.00 | 0.00 | 0.00 | 55 | 1023.5 |
| 20260905160121 | 73 | 230 | 0.0 | 1.0 | 0.00 | 0.00 | 0.00 | 55 | 1023.5 |
| 20260905155118 | 73 | 230 | 0.0 | 1.0 | 0.00 | 0.00 | 0.00 | 55 | 1023.5 |
| 20260905154124 | 73 | 230 | 0.0 | 2.0 | 0.00 | 0.00 | 0.00 | 56 | 1023.6 |
| 20260905153117 | 73 | 230 | 0.0 | 3.0 | 0.00 | 0.00 | 0.00 | 56 | 1023.7 |
| 20260905152150 | 74 | 230 | 0.0 | 2.0 | 0.00 | 0.00 | 0.00 | 54 | 1023.8 |
| 20260905151115 | 74 | 230 | 0.0 | 2.0 | 0.00 | 0.00 | 0.00 | 56 | 1023.9 |
| 20260905150128 | 73 | 230 | 0.0 | 2.0 | 0.00 | 0.00 | 0.00 | 55 | 1024.0 |
| 20260905145138 | 73 | 231 | 1.0 | 2.0 | 0.00 | 0.00 | 0.00 | 55 | 1024.1 |
| 20260905144121 | 74 | 230 | 0.0 | 2.0 | 0.00 | 0.00 | 0.00 | 55 | 1024.0 |
| 20260905143113 | 74 | 230 | 0.0 | 2.0 | 0.00 | 0.00 | 0.00 | 54 | 1024.0 |
| 20260905142125 | 74 | 230 | 0.0 | 1.0 | 0.00 | 0.00 | 0.00 | 55 | 1024.0 |
| 20260905141130 | 74 | 231 | 0.0 | 1.0 | 0.00 | 0.00 | 0.00 | 54 | 1024.1 |
| 20260905140124 | 74 | 231 | 0.0 | 2.0 | 0.00 | 0.00 | 0.00 | 55 | 1024.3 |
| 20260905135138 | 74 | 226 | 0.0 | 3.0 | 0.00 | 0.00 | 0.00 | 54 | 1024.5 |
| 20260905133119 | 76 | 226 | 0.0 | 3.0 | 0.00 | 0.00 | 0.00 | 49 | 1024.6 |
| 20260905132132 | 76 | 226 | 0.0 | 1.0 | 0.00 | 0.00 | 0.00 | 47 | 1024.6 |
| 20260905131125 | 75 | 226 | 0.0 | 3.0 | 0.00 | 0.00 | 0.00 | 47 | 1024.4 |
| 20260905130132 | 75 | 226 | 0.0 | 1.0 | 0.00 | 0.00 | 0.00 | 50 | 1024.3 |
| 20260905125145 | 74 | 226 | 0.0 | 3.0 | 0.00 | 0.00 | 0.00 | 48 | 1024.3 |
| 20260905124136 | 73 | 226 | 0.0 | 1.0 | 0.00 | 0.00 | 0.00 | 51 | 1024.3 |
| 20260905123120 | 73 | 226 | 0.0 | 4.0 | 0.00 | 0.00 | 0.00 | 49 | 1024.3 |
| 20260905122113 | 72 | 226 | 0.0 | 3.0 | 0.00 | 0.00 | 0.00 | 52 | 1024.4 |
| 20260905121120 | 72 | 226 | 0.0 | 4.0 | 0.00 | 0.00 | 0.00 | 52 | 1024.4 |
| 20260905120132 | 72 | 226 | 1.0 | 3.0 | 0.00 | 0.00 | 0.00 | 52 | 1024.4 |
| 20260905115119 | 71 | 226 | 0.0 | 1.0 | 0.00 | 0.00 | 0.00 | 52 | 1024.3 |
| 20260905114200 | 72 | 226 | 0.0 | 4.0 | 0.00 | 0.00 | 0.00 | 51 | 1024.4 |
| 20260905113123 | 72 | 226 | 0.0 | 1.0 | 0.00 | 0.00 | 0.00 | 54 | 1024.5 |
| 20260905112136 | 71 | 226 | 1.0 | 2.0 | 0.00 | 0.00 | 0.00 | 52 | 1024.6 |
| 20260905111122 | 70 | 226 | 0.0 | 4.0 | 0.00 | 0.00 | 0.00 | 54 | 1024.5 |
| 20260905110136 | 70 | 226 | 0.0 | 3.0 | 0.00 | 0.00 | 0.00 | 54 | 1024.6 |
| 20260905105123 | 70 | 226 | 0.0 | 2.0 | 0.00 | 0.00 | 0.00 | 54 | 1024.4 |
| 20260905104113 | 70 | 226 | 0.0 | 2.0 | 0.00 | 0.00 | 0.00 | 54 | 1024.4 |
| 20260905103119 | 69 | 226 | 0.0 | 3.0 | 0.00 | 0.00 | 0.00 | 55 | 1024.5 |
| 20260905102111 | 68 | 226 | 0.0 | 1.0 | 0.00 | 0.00 | 0.00 | 57 | 1024.5 |
| 20260905101125 | 67 | 226 | 0.0 | 2.0 | 0.00 | 0.00 | 0.00 | 59 | 1024.6 |
| 20260905100138 | 67 | 226 | 0.0 | 1.0 | 0.00 | 0.00 | 0.00 | 58 | 1024.6 |
| 20260905095150 | 67 | 226 | 0.0 | 3.0 | 0.00 | 0.00 | 0.00 | 58 | 1024.6 |
| 20260905094114 | 65 | 226 | 0.0 | 1.0 | 0.00 | 0.00 | 0.00 | 64 | 1024.6 |
| 20260905093126 | 65 | 226 | 1.0 | 3.0 | 0.00 | 0.00 | 0.00 | 62 | 1024.7 |
| 20260905092139 | 65 | 226 | 0.0 | 1.0 | 0.00 | 0.00 | 0.00 | 64 | 1024.6 |
| 20260905091131 | 64 | 226 | 0.0 | 1.0 | 0.00 | 0.00 | 0.00 | 64 | 1024.3 |
| 20260905090117 | 64 | 226 | 0.0 | 1.0 | 0.00 | 0.00 | 0.00 | 64 | 1024.3 |
| 20260905085130 | 65 | 226 | 0.0 | 4.0 | 0.00 | 0.00 | 0.00 | 63 | 1024.2 |
| 20260905084117 | 67 | 226 | 0.0 | 1.0 | 0.00 | 0.00 | 0.00 | 65 | 1024.2 |
| 20260905083148 | 65 | 226 | 0.0 | 1.0 | 0.00 | 0.00 | 0.00 | 68 | 1024.1 |
| 20260905082120 | 64 | 226 | 0.0 | 1.0 | 0.00 | 0.00 | 0.00 | 71 | 1024.0 |
| 20260905081125 | 62 | 226 | 0.0 | 2.0 | 0.00 | 0.00 | 0.00 | 76 | 1023.8 |
| 20260905080119 | 61 | 226 | 0.0 | 1.0 | 0.00 | 0.00 | 0.00 | 83 | 1023.7 |
| 20260905075132 | 59 | 226 | 0.0 | 0.0 | 0.00 | 0.00 | 0.00 | 88 | 1023.7 |
| 20260905074117 | 58 | 226 | 0.0 | 0.0 | 0.00 | 0.00 | 0.00 | 90 | 1023.6 |
| 20260905073130 | 57 | 226 | 0.0 | 0.0 | 0.00 | 0.00 | 0.00 | 92 | 1023.6 |
| 20260905072118 | 56 | 226 | 0.0 | 0.0 | 0.00 | 0.00 | 0.00 | 94 | 1023.4 |
| 20260905071132 | 55 | 226 | 0.0 | 0.0 | 0.00 | 0.00 | 0.00 | 94 | 1023.3 |
| 20260905070118 | 55 | 226 | 0.0 | 0.0 | 0.00 | 0.00 | 0.00 | 94 | 1023.3 |
| 20260905065131 | 54 | 226 | 0.0 | 0.0 | 0.00 | 0.00 | 0.00 | 94 | 1023.3 |
| 20260905064116 | 54 | 226 | 0.0 | 0.0 | 0.00 | 0.00 | 0.00 | 94 | 1023.0 |
| 20260905063113 | 54 | 226 | 0.0 | 0.0 | 0.00 | 0.00 | 0.00 | 93 | 1023.0 |
| 20260905062140 | 54 | 226 | 0.0 | 0.0 | 0.00 | 0.00 | 0.00 | 94 | 1022.9 |
| 20260905061138 | 54 | 226 | 0.0 | 0.0 | 0.00 | 0.12 | 0.00 | 94 | 1022.9 |
| 20260905060129 | 54 | 226 | 0.0 | 0.0 | 0.00 | 0.12 | 0.00 | 94 | 1022.9 |
| 20260905055116 | 54 | 226 | 0.0 | 0.0 | 0.00 | 0.12 | 0.00 | 94 | 1022.8 |
| 20260905054112 | 54 | 226 | 0.0 | 0.0 | 0.00 | 0.12 | 0.00 | 94 | 1022.7 |
| 20260905053120 | 54 | 226 | 0.0 | 0.0 | 0.00 | 0.12 | 0.00 | 94 | 1022.6 |
| 20260905052126 | 54 | 226 | 0.0 | 0.0 | 0.00 | 0.12 | 0.00 | 94 | 1022.6 |
| 20260905051138 | 54 | 226 | 0.0 | 0.0 | 0.00 | 0.12 | 0.00 | 94 | 1022.6 |
| 20260905050150 | 54 | 226 | 0.0 | 0.0 | 0.00 | 0.12 | 0.00 | 94 | 1022.5 |
| 20260905045121 | 54 | 226 | 0.0 | 0.0 | 0.00 | 0.12 | 0.00 | 94 | 1022.3 |
| 20260905044111 | 53 | 226 | 0.0 | 0.0 | 0.00 | 0.12 | 0.00 | 95 | 1022.4 |
| 20260905043124 | 53 | 226 | 0.0 | 0.0 | 0.00 | 0.12 | 0.00 | 94 | 1022.2 |
| 20260905042136 | 52 | 226 | 0.0 | 0.0 | 0.00 | 0.12 | 0.00 | 95 | 1022.3 |
| 20260905041120 | 52 | 226 | 0.0 | 1.0 | 0.00 | 0.12 | 0.00 | 95 | 1022.2 |
| 20260905040133 | 51 | 226 | 0.0 | 0.0 | 0.00 | 0.12 | 0.00 | 94 | 1022.1 |
| 20260905035124 | 51 | 226 | 0.0 | 0.0 | 0.00 | 0.12 | 0.00 | 93 | 1022.0 |
| 20260905034138 | 51 | 226 | 0.0 | 0.0 | 0.00 | 0.12 | 0.00 | 93 | 1021.8 |
| 20260905033123 | 52 | 226 | 0.0 | 0.0 | 0.00 | 0.12 | 0.00 | 93 | 1021.8 |
| 20260905032137 | 52 | 226 | 0.0 | 0.0 | 0.00 | 0.12 | 0.00 | 94 | 1021.6 |
| 20260905031143 | 52 | 226 | 0.0 | 0.0 | 0.00 | 0.12 | 0.00 | 94 | 1021.5 |
| 20260905030134 | 51 | 226 | 0.0 | 0.0 | 0.00 | 0.12 | 0.00 | 94 | 1021.6 |
| 20260905025126 | 50 | 226 | 0.0 | 0.0 | 0.00 | 0.12 | 0.00 | 94 | 1021.5 |
| 20260905024113 | 50 | 226 | 0.0 | 0.0 | 0.00 | 0.12 | 0.00 | 93 | 1021.4 |
| 20260905023126 | 50 | 226 | 0.0 | 0.0 | 0.00 | 0.12 | 0.00 | 92 | 1021.3 |
| 20260905022111 | 50 | 226 | 0.0 | 0.0 | 0.00 | 0.12 | 0.00 | 92 | 1021.2 |
| 20260905021124 | 50 | 226 | 0.0 | 0.0 | 0.00 | 0.12 | 0.00 | 92 | 1021.1 |
| 20260905020117 | 51 | 226 | 0.0 | 0.0 | 0.00 | 0.12 | 0.00 | 92 | 1021.1 |
| 20260905015123 | 51 | 226 | 0.0 | 0.0 | 0.00 | 0.12 | 0.00 | 92 | 1021.1 |
| 20260905014116 | 51 | 226 | 0.0 | 0.0 | 0.00 | 0.12 | 0.00 | 92 | 1021.0 |
| 20260905013128 | 51 | 226 | 0.0 | 0.0 | 0.00 | 0.12 | 0.00 | 91 | 1021.0 |
| 20260905012115 | 51 | 226 | 0.0 | 0.0 | 0.00 | 0.12 | 0.00 | 91 | 1021.0 |
| 20260905011127 | 52 | 226 | 0.0 | 0.0 | 0.00 | 0.12 | 0.00 | 91 | 1021.0 |
| 20260905010113 | 51 | 226 | 0.0 | 0.0 | 0.00 | 0.12 | 0.00 | 91 | 1020.9 |
| 20260905005125 | 51 | 226 | 0.0 | 0.0 | 0.00 | 0.12 | 0.00 | 90 | 1021.0 |
| 20260905004111 | 51 | 226 | 0.0 | 0.0 | 0.00 | 0.12 | 0.00 | 89 | 1020.9 |
| 20260905003124 | 52 | 226 | 0.0 | 0.0 | 0.00 | 0.12 | 0.00 | 89 | 1020.9 |
| 20260905002117 | 52 | 226 | 0.0 | 0.0 | 0.00 | 0.12 | 0.00 | 88 | 1020.9 |
| 20260905001123 | 52 | 226 | 0.0 | 0.0 | 0.00 | 0.12 | 0.00 | 87 | 1020.8 |
| 20260905000116 | 53 | 226 | 0.0 | 0.0 | 0.00 | 0.12 | 0.00 | 87 | 1020.7 |
| 20260904235122 | 53 | 226 | 0.0 | 0.0 | 0.00 | 0.12 | 0.00 | 86 | 1020.7 |